Content
SEND FEEDBACK

Daily
Averages
Monthly
Summary
United States of America

GRAFTON, WISCONSIN


Home > North America > United States > Wisconsin
Elevation: 606 feet     Latitude: 43 22N     Longitude: 087 52W

WEATHER
 
SELECT A DAY
Number of Records: 389,060;   Date Range: 5/11/98 - 8/28/14
 
SHARE

PRINT THIS DATA

[ ← Previous Day ]
WEATHER ALMANAC - JANUARY 31, 2013
[ Next Day → ]
[ °C ]   °F
Weather ElementAverageHighLow
Temperature11.8 °F17.6 °F (12:35 am)3.2 °F (11:15 pm)
Dewpoint4 °F12.2 °F (12:55 am)-4 °F (10:55 pm)
Humidity71 %79 % (12:55 am)62 % (6:55 am)
Barometer29.79 in30.06 in (11:55 pm)29.55 in (12:35 am)
Wind Speed15.6 mph20.7 mph (5:55 pm)
Wind Gust29.9 mph (3:35 am)
Weather ElementAverage
Visibility8.1 mi
Wind DirectionWNW (280.6 °)

Weather ElementTotal
Precipitation---
Heating Degree Days54.6 (Base 65)
Averaged from 65 records on January 31, 2013
WEATHER CONDITIONS BREAKOUT
WIND DIRECTION BREAKOUT
WEATHER BY HOUR - JANUARY 31, 2013
[ °C ]   °F
Local TimeTemperatureDewpointHumidityBarometerVisibilityWind DirectionWind SpeedGust SpeedPrecipitationEventsConditions
12:35 AM17.6 °F10.4 °F73 %29.55 in10.0 miWest (280°)13.8 mph18.4 mphSnowLight Snow
12:55 AM17.6 °F12.2 °F79 %29.55 in5.0 miWest (280°)17.3 mph24.2 mphSnowLight Snow
1:15 AM17.6 °F10.4 °F73 %29.56 in5.0 miWest (280°)15.0 mph27.6 mphSnowLight Snow
1:35 AM17.6 °F10.4 °F73 %29.57 in7.0 miWest (280°)17.3 mph23.0 mphSnowLight Snow
1:55 AM17.6 °F10.4 °F73 %29.58 in10.0 miWest (270°)17.3 mph26.5 mphSnowLight Snow
2:15 AM15.8 °F10.4 °F79 %29.59 in10.0 miWest (280°)15.0 mph24.2 mphSnowLight Snow
2:35 AM15.8 °F10.4 °F79 %29.59 in7.0 miWest (280°)15.0 mph25.3 mphSnowLight Snow
2:55 AM15.8 °F8.6 °F73 %29.60 in7.0 miWest (270°)13.8 mph24.2 mphSnowLight Snow
3:15 AM14.0 °F8.6 °F79 %29.60 in10.0 miWest (270°)17.3 mph26.5 mphOvercast
3:35 AM14.0 °F8.6 °F79 %29.61 in10.0 miWest (280°)18.4 mph29.9 mphOvercast
3:55 AM14.0 °F8.6 °F79 %29.61 in10.0 miWest (280°)16.1 mph21.9 mphOvercast
4:15 AM14.0 °F6.8 °F73 %29.61 in10.0 miWest (280°)17.3 mph27.6 mphOvercast
4:35 AM14.0 °F6.8 °F73 %29.62 in10.0 miWest (280°)18.4 mph25.3 mphOvercast
5:15 AM14.0 °F5.0 °F67 %29.63 in10.0 miWest (280°)13.8 mph21.9 mphOvercast
5:35 AM14.0 °F5.0 °F67 %29.63 in10.0 miWest (280°)15.0 mph19.6 mphOvercast
5:55 AM14.0 °F5.0 °F67 %29.64 in10.0 miWest (270°)15.0 mphOvercast
6:15 AM14.0 °F5.0 °F67 %29.65 in10.0 miWest (280°)18.4 mph25.3 mphOvercast
6:55 AM14.0 °F3.2 °F62 %29.66 in10.0 miWest (280°)18.4 mph24.2 mphOvercast
7:15 AM12.2 °F3.2 °F67 %29.68 in10.0 miWest (280°)16.1 mph21.9 mphOvercast
7:35 AM12.2 °F5.0 °F73 %29.69 in7.0 miWNW (290°)16.1 mph23.0 mphOvercast
7:55 AM12.2 °F5.0 °F73 %29.69 in3.0 miWNW (290°)15.0 mph20.7 mphSnowLight Snow
8:35 AM12.2 °F5.0 °F73 %29.72 in5.0 miWest (280°)13.8 mph25.3 mphHaze
8:55 AM12.2 °F5.0 °F73 %29.73 in7.0 miWest (280°)17.3 mph23.0 mphOvercast
9:15 AM12.2 °F5.0 °F73 %29.73 in1.5 miWNW (290°)16.1 mph20.7 mphSnowLight Snow
9:35 AM12.2 °F5.0 °F73 %29.75 in10.0 miWNW (290°)18.4 mph25.3 mphOvercast
9:55 AM14.0 °F5.0 °F67 %29.75 in10.0 miWest (280°)19.6 mph26.5 mphOvercast
10:15 AM12.2 °F5.0 °F73 %29.76 in10.0 miWest (280°)19.6 mph25.3 mphOvercast
10:35 AM14.0 °F5.0 °F67 %29.77 in10.0 miWNW (290°)15.0 mph21.9 mphOvercast
10:55 AM14.0 °F5.0 °F67 %29.78 in10.0 miWNW (290°)12.7 mph24.2 mphOvercast
11:15 AM12.2 °F3.2 °F67 %29.77 in10.0 miWNW (300°)15.0 mph25.3 mphOvercast
11:55 AM14.0 °F3.2 °F62 %29.78 in7.0 miWNW (290°)17.3 mph21.9 mphOvercast
12:15 PM12.2 °F3.2 °F67 %29.79 in5.0 miWNW (290°)16.1 mph20.7 mphHaze
12:35 PM14.0 °F3.2 °F62 %29.79 in7.0 miWNW (290°)15.0 mph20.7 mphOvercast
12:55 PM14.0 °F5.0 °F67 %29.80 in7.0 miWest (280°)12.7 mph17.3 mphOvercast
1:15 PM12.2 °F5.0 °F73 %29.80 in3.0 miWest (270°)15.0 mphHaze
1:35 PM14.0 °F5.0 °F67 %29.81 in3.0 miWest (280°)16.1 mph23.0 mphHaze
1:55 PM12.2 °F3.2 °F67 %29.81 in4.0 miWest (280°)15.0 mph24.2 mphHaze
2:15 PM12.2 °F3.2 °F67 %29.82 in5.0 miWest (270°)13.8 mph20.7 mphHaze
2:35 PM12.2 °F3.2 °F67 %29.82 in10.0 miWest (270°)13.8 mph19.6 mphOvercast
2:55 PM12.2 °F3.2 °F67 %29.83 in10.0 miWest (280°)15.0 mph25.3 mphOvercast
3:15 PM12.2 °F3.2 °F67 %29.84 in10.0 miWest (280°)12.7 mph20.7 mphOvercast
3:35 PM12.2 °F3.2 °F67 %29.85 in5.0 miWest (280°)13.8 mph20.7 mphSnowLight Snow
3:55 PM12.2 °F3.2 °F67 %29.85 in3.0 miWest (280°)13.8 mph19.6 mphSnowLight Snow
4:15 PM12.2 °F5.0 °F73 %29.86 in2.0 miWest (270°)11.5 mph21.9 mphSnowLight Snow
4:35 PM12.2 °F5.0 °F73 %29.87 in3.0 miWest (270°)12.7 mph20.7 mphSnowLight Snow
4:55 PM10.4 °F3.2 °F73 %29.88 in7.0 miWest (280°)16.1 mph24.2 mphOvercast
5:15 PM10.4 °F3.2 °F73 %29.89 in5.0 miWest (280°)13.8 mph26.5 mphHaze
5:35 PM10.4 °F3.2 °F73 %29.90 in7.0 miWest (280°)18.4 mph26.5 mphMostly Cloudy
5:55 PM10.4 °F1.4 °F67 %29.91 in10.0 miWest (280°)20.7 mph24.2 mphOvercast
6:15 PM10.4 °F3.2 °F73 %29.92 in10.0 miWest (280°)18.4 mph21.9 mphOvercast
6:35 PM10.4 °F3.2 °F73 %29.93 in10.0 miWest (280°)15.0 mph19.6 mphOvercast
6:55 PM8.6 °F1.4 °F73 %29.94 in10.0 miWest (280°)19.6 mph24.2 mphOvercast
7:15 PM8.6 °F1.4 °F73 %29.96 in10.0 miWest (280°)16.1 mph25.3 mphOvercast
7:35 PM8.6 °F1.4 °F73 %29.96 in10.0 miWest (280°)17.3 mph24.2 mphOvercast
7:55 PM8.6 °F1.4 °F73 %29.97 in10.0 miWest (280°)16.1 mph24.2 mphOvercast
8:15 PM8.6 °F-0.4 °F67 %29.98 in10.0 miWNW (290°)17.3 mph25.3 mphMostly Cloudy
9:15 PM6.8 °F-0.4 °F72 %30.00 in10.0 miWest (280°)15.0 mph21.9 mphMostly Cloudy
9:35 PM5.0 °F-0.4 °F78 %30.01 in10.0 miWest (280°)15.0 mph24.2 mphClear
9:55 PM5.0 °F-2.2 °F72 %30.02 in10.0 miWest (280°)15.0 mph21.9 mphClear
10:15 PM5.0 °F-2.2 °F72 %30.03 in10.0 miWest (280°)16.1 mph23.0 mphMostly Cloudy
10:35 PM5.0 °F-2.2 °F72 %30.03 in10.0 miWNW (290°)13.8 mph19.6 mphOvercast
10:55 PM5.0 °F-4.0 °F66 %30.04 in10.0 miWest (280°)16.1 mph19.6 mphScattered Clouds
11:15 PM3.2 °F-4.0 °F72 %30.05 in10.0 miWest (280°)10.4 mph20.7 mphClear
11:35 PM3.2 °F-4.0 °F72 %30.05 in10.0 miWest (280°)11.5 mph20.7 mphClear
11:55 PM3.2 °F-4.0 °F72 %30.06 in10.0 miWest (280°)12.7 mph19.6 mphClear
Hourly data recorded from KETB, located miles away from Grafton, Wisconsin







STORIES FROM OUR PARTNERS